ニェウイミン第3彗星

42P/Neujmin 3 (2004)

English version
Home page
Updated on May 5, 2012

---------------------------------------------------------------------

・ プロフィール

・ 写真集

・ 軌道要素

Epoch 2004 July 14.0 TT = JDT 2453200.5
T 2004 July 15.94512 TT                                 MPC
q   2.0147378            (2000.0)            P               Q
n   0.09210638     Peri.  147.16131     +0.46309775     +0.88564144
a   4.8559726      Node   150.38398     -0.82742743     +0.44589731
e   0.5851011      Incl.    3.98541     -0.31765442     +0.12967202
P  10.7
From 218 observations 1972 June 16-2004 Nov. 7, mean residual 0".7.
     Nongravitational parameters A1 = +0.77, A2 = +0.1374.

・ 星図

・ 光度変化

        m1 = 12.5 + 5 logΔ + 12.8 log r

---------------------------------------------------------------------

軌道要素はM.P.E.C. 2012-J16に掲載されたものです。
星図は StellaNavigator Ver.2.0 for Windows (アストロアーツ編著 / アスキー出版局刊) で作成したものです。
光度グラフはComet for Windowsで作成したものです。

---------------------------------------------------------------------

Copyright(C) Seiichi Yoshida (comet@aerith.net). All rights reserved.